Hourly Data Report for October 05, 2016

All times are specified in Local Standard Time (LST). Add 1 hour to adjust for Daylight Saving Time where and when it is observed.

PANGNIRTUNG
NUNAVUT

66°08'36.300" N
65°42'40.500" W
22.60 m
2403049
71826
WXP

Download Data

Hourly Data (October 2016)
Hourly Data Report for October 5, 2016
Temp Definition
°C
Dew Point Temp Definition
°C
Rel Hum Definition
%
Wind Dir Definition
10's deg

Wind Spd Definition
km/h
Visibility Definition
km
Stn Press Definition
kPa
Hmdx Definition


Wind Chill Definition


Weather Definition


TIME
00:00 0.0 -2.5 84 10 8   99.25   -3 LegendNANA
01:00 0.0 -2.8 81 7 5   99.28   -2 LegendNANA
02:00 -0.2 -2.9 82 10 5   99.30   -2 LegendNANA
03:00 -0.2 -3.0 81 11 5   99.31   -2 LegendNANA
04:00 0.1 -3.1 79 6 4   99.32     LegendNANA
05:00 0.1 -3.1 79 12 4   99.33     LegendNANA
06:00 0.0 -2.8 82 14 7   99.33   -2 LegendNANA
07:00 -0.2 -1.9 88 36 1   99.37   -1 LegendNANA
08:00 0.2 -2.0 85 35 4   99.37     LegendNANA
09:00 0.3 -1.9 85 35 5   99.36     LegendNANA
10:00 1.0 -2.0 81 1 4   99.36     LegendNANA
11:00 1.2 -2.3 77 36 3   99.35     LegendNANA
12:00 1.3 -2.3 77 31 4   99.35     LegendNANA
13:00 1.4 -1.8 79 26 8   99.37     LegendNANA
14:00 0.8 -1.0 88 25 14   99.39     LegendNANA
15:00 1.2 -1.7 81 26 11   99.42     LegendNANA
16:00 0.9 -2.2 80 27 12   99.45     LegendNANA
17:00 0.4 -1.6 86 28 7   99.48     LegendNANA
18:00 0.5 -2.1 83 10 2   99.50     LegendNANA
19:00 0.7 -2.5 79 18 2   99.52     LegendNANA
20:00 0.5 -2.3 81 28 4   99.54     LegendNANA
21:00 0.0 -2.2 85 0 1   99.55   0 LegendNANA
22:00 0.0 -2.1 85 0 1   99.56   0 LegendNANA
23:00 -0.5 -2.5 87 9 6   99.59   -3 LegendNANA

Notes on Data Quality.

Legend

  • E = Estimated
  • M = Missing
  • NA = Not Available
  • ‡ = Partner data that is not subject to review by the National Climate Archives
Date modified: